Regional Weather Roundup
Issued by NWS

Home | Current Version | Previous Version | Graphics & Text | Print | Product List | Glossary On
Versions: 1 2 3 4 5 6 7 8 9 10 11 12 13 14 15 16 17 18 19 20 21 22 23 24 25 26 27 28 29 30 31 32 33 34 35 36 37 38 39 40 41 42 43 44 45 46 47 48 49 50
000
ASUS43 KLSX 251107
RWRMO

WEATHER SUMMARY FOR MISSOURI
NATIONAL WEATHER SERVICE SPRINGFIELD MO
600 AM CDT FRI JUL 25 2014

NOTE: "FAIR" INDICATES FEW OR NO CLOUDS BELOW 12,000 FEET WITH NO
       SIGNIFICANT WEATHER AND/OR OBSTRUCTIONS TO VISIBILITY.
       CURRENT SKY AND/OR WEATHER CONDITIONS ARE NOT AVAILABLE FOR
       CHILLICOTHE AND FARMINGTON.

MOZ001>031-035>038-043-044-053-054-251200-
...NORTHERN AND WESTERN MISSOURI...

CITY           SKY/WX    TMP DP  RH WIND       PRES   REMARKS
KANSAS CTY INT MOCLDY    73  65  75 S10       29.90R
KANSAS C DTWN  MOCLDY    74  63  68 S9        29.90R
LEE`S SUMMIT   MOCLDY    70  61  73 S10       29.92R
ST JOSEPH      CLOUDY    72  63  73 SE7       29.88R
CHILLICOTHE      N/A     67  56  67 SE6       29.94F
KIRKSVILLE     CLOUDY    64  55  72 SE10      29.98S

$$
MOZ066>068-077>081-088>096-101>105-251200-
...SOUTHWEST MISSOURI...

CITY           SKY/WX    TMP DP  RH WIND       PRES   REMARKS
SPRINGFIELD    MOCLDY    66  58  75 S12       30.01R
JOPLIN         CLEAR     71  67  87 S10       29.97S

$$
MOZ032>034-039>042-045>050-055>058-069>072-251200-
...CENTRAL MISSOURI...

CITY           SKY/WX    TMP DP  RH WIND       PRES   REMARKS
COLUMBIA       MOCLDY    64  56  75 SE12      30.00S
JEFFERSON CITY MOCLDY    65  55  70 E6        30.01R
ROLLA          MOCLDY    63  55  75 S9        30.02R
SEDALIA        MOCLDY    68  57  68 S12       29.97R
WHITEMAN AFB   MOCLDY    66  50  56 S8        29.95R
OSAGE BEACH    MOCLDY    64  54  68 S9        30.00S

$$
MOZ051-052-059>065-251200-
...EAST CENTRAL MISSOURI...

CITY           SKY/WX    TMP DP  RH WIND       PRES   REMARKS
ST LOUIS INTL  CLOUDY    68  57  68 S6        30.03F
SPIRIT OF STL  CLOUDY    59  56  89 CALM      30.02F
ST CHARLES     CLOUDY    60  57  89 E5        30.02F

$$
MOZ072>076-082>087-097>100-106>115-251200-
...SOUTH CENTRAL AND SOUTHEAST MISSOURI...

CITY           SKY/WX    TMP DP  RH WIND       PRES   REMARKS
CAPE GIRARDEAU PTCLDY    60  58  92 CALM      30.06R FOG
FARMINGTON     MOCLDY    55  54  94 CALM      30.09R
POPLAR BLUFF   PTCLDY    58  56  93 CALM      30.05R FOG
WEST PLAINS    PTCLDY    62  56  80 S3        30.07R

$$


USA.gov is the U.S. government's official web portal to all federal, state and local government web resources and services.